Theta_e
293 294 297 300 301 300 299 297 298 299 299 296 296 295 294 291 290 290 291 290 291 292 292 292 293 293 293 294 295 295 296 297 298 299 301 301 301 301 301 302 302 303 304 304 305 305 305 306 306 306 306 307 307 307 307 308 308 309 309 309 309 310 312 314 314 315 315 315 315
291 293 297 299 301 300 299 297 297 298 298 297 296 295 294 292 290 290 289 289 290 290 291 292 291 291 291 293 294 295 295 295 296 297 298 299 300 300 301 301 301 302 303 304 304 304 305 305 305 305 305 305 306 306 306 307 307 308 307 307 308 308 309 309 310 311 312 312 312
288 291 294 297 298 299 298 297 296 296 296 297 296 295 294 293 292 291 290 289 289 289 289 290 290 290 290 291 292 293 294 295 295 296 296 297 298 299 300 300 300 301 302 303 303 304 304 304 304 304 304 304 304 305 305 306 306 306 306 306 307 307 307 307 307 308 309 309 310
287 289 291 295 295 297 297 295 295 295 296 298 298 296 294 293 293 292 290 289 289 289 289 289 288 289 290 290 291 292 293 295 295 294 294 295 296 297 298 299 299 300 301 302 302 303 303 304 304 303 303 303 303 304 304 305 305 305 305 305 306 306 307 307 307 307 307 307 307
287 288 290 292 293 296 298 296 297 297 297 297 296 295 294 292 292 290 290 290 290 289 289 289 288 289 290 289 290 290 291 293 294 294 293 294 294 295 296 297 298 299 299 301 301 302 302 303 303 302 302 302 302 303 303 304 304 304 304 305 305 305 305 306 306 306 306 306 305
288 289 290 291 292 295 298 297 296 296 297 298 296 296 296 293 291 290 289 288 288 288 289 291 290 291 291 289 289 289 289 290 291 291 291 292 293 293 294 295 296 297 298 299 300 301 302 302 302 302 302 302 302 302 303 304 304 304 304 304 304 304 304 305 305 305 306 305 305
287 288 290 290 293 295 297 298 295 294 296 297 296 296 297 296 292 289 287 286 287 288 290 291 289 289 289 288 288 288 288 288 289 289 290 290 291 292 292 293 294 295 296 297 298 299 300 301 301 301 302 302 302 302 302 302 302 302 302 302 303 303 303 303 304 305 304 304 304
287 287 288 290 292 295 297 298 295 295 295 295 296 297 297 296 294 290 287 286 286 288 289 288 286 286 287 287 287 288 288 288 288 288 288 289 289 290 290 291 292 293 294 295 296 298 299 300 300 300 300 300 300 301 301 301 301 301 301 301 302 302 302 302 303 303 303 302 302
287 288 288 290 291 293 295 297 297 296 294 292 295 296 296 295 294 291 289 288 288 287 287 285 286 286 287 286 286 287 287 288 288 288 288 288 288 289 289 290 291 292 293 293 294 295 297 298 299 299 299 299 299 300 300 300 300 300 300 300 301 301 301 302 302 302 302 301 301
286 287 288 290 290 292 293 295 296 296 295 293 293 295 296 296 295 293 292 292 291 288 286 285 286 289 290 286 286 286 287 287 288 288 288 289 289 289 288 289 290 291 292 292 293 293 294 296 297 298 298 298 299 299 299 299 299 299 299 300 300 300 300 300 301 301 301 300 299
286 286 287 289 289 290 292 294 295 296 296 293 292 293 295 295 294 294 293 291 291 289 288 291 290 290 288 287 286 286 287 286 287 287 288 288 289 289 289 289 289 290 291 292 293 293 293 294 295 295 296 297 298 298 298 298 298 298 298 299 299 299 299 299 299 299 299 299 299
285 286 286 288 289 290 290 292 293 294 294 293 293 293 294 293 292 293 293 291 291 290 290 294 293 291 289 287 287 287 288 286 286 286 287 287 287 288 288 289 289 289 290 291 293 294 293 292 292 293 294 295 296 297 297 297 297 297 297 297 298 298 298 298 298 299 299 299 298
284 285 286 286 289 290 290 290 291 292 293 293 292 293 294 293 293 292 292 291 291 291 291 294 294 293 291 288 288 287 287 286 286 286 286 286 286 287 288 289 289 289 289 290 292 294 294 292 292 292 293 293 294 295 296 296 296 296 296 296 296 296 296 296 297 298 298 298 298
283 284 285 285 286 288 290 290 290 291 291 291 291 293 295 295 294 292 290 289 290 290 291 292 293 293 293 291 289 288 288 289 288 287 286 286 286 286 287 288 289 289 289 290 291 293 293 293 292 291 292 292 293 294 294 295 295 295 296 296 295 295 295 296 296 297 297 297 297
283 283 284 284 285 287 289 290 292 292 291 290 291 293 295 295 295 292 289 289 289 289 288 287 289 290 292 292 291 290 289 290 290 290 288 287 285 285 286 287 288 288 288 289 291 292 293 292 291 291 291 292 292 293 293 293 294 294 295 295 295 295 295 295 295 296 296 296 295
284 284 284 284 285 287 288 290 291 292 291 291 290 292 294 295 294 292 290 288 288 288 287 284 285 286 288 292 291 289 289 290 289 290 290 288 285 285 285 287 288 288 288 289 291 292 292 292 291 291 291 291 292 292 292 292 293 293 294 294 294 294 294 295 295 295 295 295 295
285 285 285 285 286 287 288 289 289 290 291 291 290 290 291 295 294 292 290 288 287 288 287 285 284 284 286 289 288 286 285 286 287 289 290 290 286 284 284 286 288 289 289 290 291 292 292 292 292 291 291 291 292 292 293 292 293 293 293 293 293 293 294 294 294 294 294 294 294
286 286 286 286 287 287 287 288 287 287 287 288 289 289 288 292 291 291 289 287 287 287 288 286 283 283 283 285 284 284 283 282 283 285 286 288 287 286 286 287 288 288 289 291 292 292 292 292 292 291 291 292 292 293 293 294 294 293 293 292 291 291 292 292 292 293 293 293 293
287 287 287 287 287 287 288 288 287 286 286 286 288 287 287 289 288 287 287 286 286 287 288 286 283 282 282 283 282 283 284 282 281 281 283 284 286 287 288 290 289 289 289 291 292 292 291 290 291 291 291 292 292 293 294 294 294 293 293 292 291 290 290 290 290 291 291 291 291
287 287 287 287 288 287 288 288 287 286 285 285 286 286 286 286 286 286 286 285 285 285 286 286 283 281 281 281 281 282 283 282 280 280 281 281 282 285 287 288 288 289 290 291 292 292 291 289 289 290 291 292 292 292 292 293 292 292 291 291 291 290 290 289 289 289 289 289 289
288 288 288 288 288 287 287 287 287 286 285 285 285 285 285 285 285 285 286 285 284 284 284 285 282 281 280 280 281 281 281 282 279 279 280 280 281 283 285 285 285 287 289 290 292 292 291 288 287 288 290 291 291 290 290 291 290 290 289 288 288 289 290 289 288 288 288 288 288
288 288 288 288 287 287 287 286 286 285 286 285 285 285 285 285 285 285 285 285 283 283 283 283 282 281 280 280 280 279 279 280 278 278 279 279 280 282 283 283 283 286 289 288 290 291 291 289 287 287 288 289 290 290 290 289 289 288 287 286 286 287 288 289 288 287 287 287 287
288 288 288 287 287 287 287 286 285 285 286 286 286 286 285 285 285 284 284 284 284 283 283 282 281 280 280 280 280 279 279 278 278 278 279 278 279 279 280 281 282 284 286 289 288 289 290 290 287 286 286 287 289 290 290 289 288 287 286 285 284 285 286 287 287 286 286 286 285
288 288 287 287 286 286 286 286 285 286 286 287 287 286 286 285 284 284 283 283 283 283 282 282 281 280 279 279 279 279 279 279 278 278 278 278 278 278 278 279 280 282 285 289 288 290 291 291 288 287 286 286 287 287 288 288 286 285 285 284 283 284 285 286 287 287 287 287 285
288 287 287 287 286 286 286 286 286 286 287 287 287 286 286 285 285 284 284 283 283 283 282 281 280 279 278 278 278 278 278 279 279 279 278 278 277 277 277 278 279 280 283 288 292 294 295 294 291 290 288 288 288 289 289 288 286 284 284 284 284 284 285 286 287 287 288 288 286
287 287 286 286 286 286 286 286 286 286 287 286 286 286 285 285 285 284 284 284 283 282 282 281 280 280 279 278 277 277 278 278 278 278 278 278 277 277 277 277 278 279 282 288 293 295 296 296 295 293 290 288 289 289 289 289 288 285 283 283 284 285 285 286 287 286 285 287 286
287 286 286 286 286 286 286 286 286 286 286 286 286 286 286 286 286 285 284 284 283 282 281 281 280 282 282 278 278 278 278 278 278 278 278 278 278 277 277 277 277 279 283 290 294 295 296 296 297 295 292 288 289 289 288 288 287 286 283 282 283 284 284 285 286 286 286 284 285
287 286 286 286 286 286 286 286 286 286 286 286 286 286 286 285 285 285 285 284 283 282 282 281 281 282 282 279 279 278 278 277 277 277 277 277 278 278 277 277 277 279 285 292 294 295 296 296 297 296 294 290 287 287 287 286 287 286 284 282 282 282 282 282 283 283 284 284 283
286 286 286 285 285 286 286 286 286 286 286 286 286 286 285 285 285 285 285 285 284 283 283 282 282 282 281 280 279 278 278 277 277 277 277 277 278 277 277 276 277 281 288 294 295 295 296 297 297 297 295 292 286 284 284 285 286 286 285 283 281 280 280 280 281 281 281 282 282
286 286 285 285 285 286 286 286 286 287 286 286 285 285 285 285 285 285 285 285 284 284 284 283 283 282 281 280 279 278 277 277 276 276 277 277 277 277 277 280 278 281 287 294 295 295 296 296 297 297 296 293 286 282 281 282 283 283 284 284 283 281 279 279 279 279 280 280 281
286 286 285 285 285 285 286 286 286 286 286 286 285 285 285 285 285 286 286 286 285 285 285 283 282 281 281 280 279 278 278 277 276 276 277 277 279 279 278 278 277 281 287 294 295 295 296 296 296 297 296 294 287 281 279 280 280 280 281 282 283 283 281 279 278 278 279 279 279
287 286 285 285 285 285 286 286 286 286 286 285 285 285 285 286 286 286 286 286 286 285 285 283 282 281 280 279 279 279 278 277 277 276 277 277 278 278 277 277 277 280 286 293 294 295 296 296 296 296 296 294 288 281 277 278 278 277 278 278 280 282 283 282 279 278 278 278 279
286 286 286 285 285 285 285 285 286 286 286 286 285 285 286 286 286 286 286 286 286 286 284 283 283 282 281 280 280 279 278 278 278 278 279 278 278 277 277 278 277 281 287 293 294 295 296 296 296 296 296 295 288 280 276 276 276 275 275 275 276 278 281 283 281 279 278 278 278
286 286 286 285 285 285 285 285 285 285 285 286 286 286 286 286 286 286 286 287 287 286 285 284 284 283 282 281 281 280 280 281 279 278 277 277 277 277 278 277 277 282 289 292 294 295 296 296 296 296 296 295 287 281 276 276 275 275 275 274 273 275 278 282 281 280 279 278 278
286 286 286 286 285 285 284 284 284 285 285 285 286 286 286 286 286 286 286 287 287 286 285 284 283 283 282 281 281 281 281 281 279 277 276 276 276 277 278 278 278 282 289 292 293 294 295 295 295 296 296 294 287 281 277 277 276 275 275 275 274 275 277 280 281 280 279 279 279
287 286 286 286 285 285 284 283 284 284 285 285 286 286 286 287 287 287 287 288 287 286 285 284 283 282 282 281 281 281 282 281 279 278 277 277 277 277 277 277 278 282 288 292 293 294 295 295 295 295 295 292 285 281 278 278 276 275 275 275 276 276 276 276 279 280 279 279 279
287 287 286 286 285 284 284 283 283 284 285 285 286 286 287 287 287 287 287 288 287 286 285 284 283 283 282 282 281 281 281 281 279 279 279 279 278 278 277 277 277 281 286 291 293 294 294 295 295 295 293 287 282 280 280 279 277 276 275 275 274 274 273 274 278 279 280 280 280
287 286 286 286 285 285 284 283 284 284 285 285 286 287 287 287 287 287 287 288 287 286 285 284 284 283 283 282 282 281 281 280 280 280 280 280 279 279 278 278 277 280 284 290 292 293 294 294 295 294 291 283 280 280 281 279 277 276 275 275 274 273 272 272 276 278 280 281 283
286 286 286 286 285 285 284 284 284 284 285 285 286 287 287 287 287 287 288 288 287 286 286 285 284 284 283 282 282 281 280 280 281 281 281 280 280 280 280 279 278 279 283 289 292 293 294 294 294 294 291 283 280 280 280 279 277 276 275 274 274 273 272 272 274 277 280 281 286
286 286 286 286 286 285 285 284 284 285 285 285 286 286 286 286 287 288 288 288 287 286 286 285 284 284 283 284 282 281 279 279 280 281 281 281 281 282 283 280 278 279 282 288 291 293 294 294 294 295 292 283 280 280 281 279 279 277 275 273 274 274 273 272 273 276 279 280 285
286 286 286 286 286 285 285 285 285 285 285 285 285 286 287 287 287 287 287 287 287 286 286 286 284 284 284 285 283 281 280 279 279 280 281 282 282 284 284 281 279 278 281 285 290 292 293 294 294 295 292 284 281 281 282 281 280 277 275 273 273 273 274 273 274 276 279 280 280
Wind_Speed
1 1 2 2 1 1 1 1 0 0 1 1 1 1 0 1 0 0 1 1 1 2 2 2 2 3 3 5 5 5 5 6 6 7 7 8 7 7 7 7 7 7 7 7 7 7 6 6 6 5 4 4 4 5 5 5 5 6 6 6 5 3 3 5 7 8 8 8 6
2 1 1 2 1 1 1 1 0 0 1 0 0 0 0 1 1 0 0 1 1 1 2 2 3 3 4 5 5 5 6 6 6 7 7 8 8 7 7 7 7 7 7 7 7 6 5 6 5 4 4 4 4 5 5 5 5 6 7 7 5 4 4 4 4 6 7 7 5
2 1 1 1 1 1 1 1 0 0 1 1 0 0 0 0 1 1 1 1 1 1 2 2 3 3 4 5 5 5 5 6 6 6 6 7 7 7 7 7 7 7 7 6 6 5 5 5 5 4 4 4 5 5 5 5 5 6 7 7 5 4 4 3 3 4 5 5 5
2 2 2 2 1 1 2 2 2 1 1 1 1 0 0 0 0 0 0 0 1 1 2 2 2 3 3 4 5 5 5 6 6 6 6 6 7 7 7 7 7 7 7 6 6 6 5 5 4 4 4 5 5 5 4 4 5 5 5 5 4 4 4 3 3 3 3 4 5
3 2 2 2 2 2 2 3 3 2 1 0 1 1 0 1 0 0 0 0 1 1 2 2 2 2 3 4 5 5 6 6 6 6 6 6 6 6 7 7 7 6 6 6 6 6 5 5 4 3 4 4 4 4 4 5 5 5 4 4 4 4 3 3 2 2 3 5 5
3 3 2 2 2 2 2 3 3 3 2 0 0 1 1 0 0 0 0 0 1 1 1 2 2 2 3 4 5 5 5 5 5 5 5 6 6 6 7 7 7 6 6 6 6 6 5 5 3 3 3 3 4 4 5 5 5 5 5 4 4 4 3 3 2 2 4 7 8
4 3 3 2 3 2 2 3 3 3 2 1 0 1 0 0 1 1 1 0 1 1 1 1 2 2 3 4 4 4 4 4 5 5 5 5 5 6 6 6 6 6 6 6 6 5 5 4 3 3 3 3 3 4 5 5 5 5 5 5 4 4 4 4 3 3 5 9 9
4 3 3 3 3 3 3 3 3 3 3 2 1 1 0 1 1 2 1 1 1 1 1 1 2 2 3 3 4 4 4 4 4 4 4 4 5 5 5 6 6 6 6 6 5 5 4 3 3 3 3 3 3 3 4 5 5 6 6 5 4 4 4 3 3 4 6 9 9
4 3 3 3 3 3 3 3 3 3 3 3 2 1 1 1 2 2 2 2 1 1 1 1 1 2 3 3 3 3 3 3 3 4 4 4 4 5 5 5 5 5 5 5 5 5 4 3 3 3 3 3 3 3 4 5 6 6 5 5 4 4 4 4 4 5 6 8 9
4 4 4 3 3 3 4 4 3 4 4 4 3 2 2 2 2 2 2 2 2 2 1 0 1 2 3 3 2 2 2 2 3 3 3 4 4 4 4 4 4 4 4 4 4 4 4 3 3 3 3 3 3 3 4 4 5 5 5 4 4 5 5 5 5 6 6 7 8
5 5 4 4 4 4 4 4 4 4 4 4 3 3 2 3 2 2 2 2 3 2 1 1 2 2 2 2 1 2 2 2 2 3 3 3 4 3 3 3 3 3 4 4 3 3 3 3 3 4 4 4 3 4 4 4 5 5 5 4 5 5 6 5 5 5 6 7 8
5 5 4 4 4 4 4 5 4 4 4 4 4 3 3 3 2 2 3 3 3 2 2 2 2 2 2 1 1 1 1 2 2 3 3 3 3 3 3 3 3 3 3 3 3 3 3 3 4 4 4 4 3 3 3 4 4 5 5 4 5 6 6 6 5 5 5 6 7
5 5 4 4 4 4 5 5 5 4 5 5 4 4 4 3 3 3 3 4 4 3 2 2 2 2 2 1 1 1 1 1 2 2 3 3 3 3 4 4 4 4 3 3 3 3 3 3 4 4 4 4 3 3 4 4 4 4 5 5 5 5 5 5 5 5 5 6 6
6 5 5 4 4 4 5 5 5 5 5 5 5 4 4 4 4 4 4 4 4 3 2 2 2 2 1 1 0 0 1 1 1 2 2 2 3 3 4 3 4 3 3 3 3 3 4 3 4 4 4 4 4 4 4 4 4 4 4 5 5 5 5 5 5 5 6 6 6
6 6 6 5 5 5 5 5 5 5 5 5 5 5 5 4 4 4 4 4 3 3 2 2 2 2 2 1 1 0 0 1 1 1 2 2 2 3 3 3 3 3 3 3 3 4 4 4 3 3 3 4 4 4 4 5 4 4 4 4 4 4 4 4 4 5 5 6 6
7 7 6 6 6 6 6 6 5 5 5 5 5 5 5 4 4 4 4 4 3 3 2 2 2 2 2 2 1 0 0 0 1 1 1 1 2 2 3 3 3 3 3 3 3 4 4 4 3 3 3 4 4 4 4 5 5 5 5 5 5 4 4 4 4 4 5 6 5
8 8 7 7 7 7 7 6 5 5 5 6 6 5 5 5 4 4 5 5 4 3 3 3 2 2 2 2 1 1 1 1 1 1 1 1 1 1 1 2 2 2 2 3 3 3 4 4 3 3 4 4 4 4 4 5 5 5 5 5 5 5 4 4 4 4 5 5 5
9 9 9 9 9 9 8 7 6 5 5 5 6 5 5 5 5 5 5 5 4 5 5 4 3 2 3 2 2 2 2 2 2 2 2 1 1 0 0 1 1 2 2 3 3 3 3 3 3 4 4 4 4 4 4 5 5 5 6 6 6 5 5 5 5 4 4 5 5
10 10 10 10 10 10 9 8 7 6 5 5 5 4 4 5 5 5 4 4 5 5 6 5 4 3 3 3 2 2 2 2 2 2 2 2 1 1 0 0 1 1 2 2 3 3 3 3 3 3 4 4 4 4 4 5 5 5 5 5 5 6 5 5 5 5 5 5 4
11 11 11 11 11 10 10 9 8 6 5 4 4 5 5 5 5 5 5 5 5 5 6 6 5 4 3 3 3 3 2 2 2 2 2 1 1 1 0 1 1 2 2 2 2 3 3 3 3 3 4 4 4 4 4 5 5 5 5 5 5 5 5 5 5 5 5 5 5
11 11 11 11 11 10 10 9 7 6 5 5 5 5 5 5 5 6 6 5 5 5 5 6 6 6 5 4 4 3 3 2 2 2 2 1 1 1 1 0 1 1 1 2 2 2 2 2 2 3 3 4 4 4 4 4 4 4 4 4 4 5 5 5 5 5 5 5 5
12 11 10 10 9 9 9 8 7 6 6 5 5 5 5 5 6 6 6 5 5 5 5 5 6 7 6 6 5 4 3 2 2 2 2 1 1 1 1 0 0 1 1 1 2 2 2 2 2 2 3 4 4 4 4 4 4 4 4 4 4 4 5 5 5 5 5 5 5
11 10 9 8 8 8 8 7 7 7 7 7 6 6 6 6 6 5 5 5 5 5 5 5 5 6 7 6 6 5 3 2 2 1 1 1 1 1 0 0 0 0 1 1 1 2 2 2 2 2 3 3 4 4 4 4 4 4 4 4 4 4 4 4 4 4 4 4 4
10 9 8 7 7 7 8 7 7 8 8 8 8 7 6 6 6 5 5 5 6 6 6 5 5 5 6 6 5 5 4 4 3 2 2 1 1 1 0 0 1 1 1 1 2 2 2 2 2 2 2 3 3 3 4 4 4 4 4 3 3 3 4 4 4 4 4 4 4
9 9 8 8 8 8 8 8 9 9 10 9 8 7 7 6 6 6 5 6 6 6 6 5 5 5 5 5 5 5 5 5 5 4 3 2 1 1 1 1 1 1 1 1 3 4 5 4 3 3 2 3 3 3 3 4 3 3 3 4 3 3 3 3 3 3 4 4 3
9 9 9 9 9 9 9 10 10 10 10 9 8 7 7 6 6 6 6 6 6 6 6 6 5 5 5 5 5 4 4 4 5 5 5 4 3 2 1 1 1 1 2 3 6 7 7 7 5 4 3 3 3 3 3 3 3 3 3 4 4 3 2 1 1 2 2 3 3
9 9 9 9 9 10 10 11 10 10 9 9 9 9 8 7 7 6 7 6 6 6 5 6 6 6 6 5 5 5 4 4 4 5 5 5 4 3 3 2 2 2 3 6 8 9 9 9 8 6 5 3 3 3 3 3 3 3 3 3 3 3 3 2 1 0 1 2 3
9 9 10 9 10 11 11 10 10 10 10 10 10 10 9 8 7 7 7 6 6 5 5 5 5 5 5 5 5 5 5 4 4 4 4 4 4 4 3 2 2 3 5 8 10 10 10 10 9 8 7 5 4 3 3 3 3 3 3 3 3 3 3 3 2 1 1 2 3
10 10 10 10 11 11 11 10 11 11 11 11 10 9 8 8 8 8 8 8 7 7 6 5 5 4 4 5 5 5 5 5 4 4 3 3 4 3 3 3 3 4 6 10 11 11 11 10 10 9 9 7 5 4 3 3 3 3 3 2 3 3 3 2 2 2 1 1 2
10 10 10 11 11 11 11 11 12 11 10 9 9 9 9 9 9 9 9 9 9 8 7 6 5 5 6 6 6 5 5 4 4 4 4 4 4 4 4 4 3 4 7 11 12 12 11 11 10 10 9 9 6 4 3 3 3 3 3 3 3 3 3 3 3 2 2 1 1
9 10 10 11 11 11 12 12 11 10 10 9 9 9 10 10 10 10 10 10 9 8 7 7 7 7 7 6 6 6 5 4 4 4 4 5 6 5 4 4 3 5 7 11 12 12 12 11 11 10 10 10 7 5 4 3 3 3 3 3 3 3 3 3 3 3 3 2 2
9 10 10 11 11 11 11 11 10 10 10 10 10 10 11 11 11 10 9 9 8 8 8 8 8 8 7 6 6 6 6 5 5 5 6 6 6 5 4 4 4 5 8 12 13 13 12 12 11 11 10 10 7 5 4 4 3 3 3 3 3 3 3 3 3 3 3 3 3
9 10 10 11 11 11 11 10 10 10 10 11 11 11 12 11 9 8 8 8 9 9 10 10 10 10 9 8 7 7 6 6 7 7 7 7 6 5 5 4 4 6 8 12 13 13 12 12 12 11 11 11 7 6 4 4 3 3 3 2 2 2 2 2 3 3 3 4 4
10 10 11 11 11 11 10 10 10 10 11 11 12 12 12 11 10 9 9 9 9 9 9 10 10 10 9 9 8 7 7 7 7 7 6 6 6 5 5 5 4 6 9 12 13 13 12 12 12 12 11 11 7 5 4 4 3 3 2 2 1 1 1 1 2 2 3 3 3
10 10 10 11 10 10 9 9 10 10 11 12 12 12 12 11 11 11 10 10 9 8 8 8 8 7 7 7 7 8 8 8 7 6 6 6 6 6 6 5 5 7 10 13 13 13 12 12 12 12 11 9 6 5 4 4 3 2 2 2 1 1 0 1 1 1 2 2 3
10 10 10 10 10 9 9 9 10 10 11 12 12 13 12 11 11 10 10 10 9 8 8 7 7 7 8 7 7 7 8 8 8 7 7 6 6 6 6 6 6 8 11 13 13 13 13 12 12 12 10 7 5 5 4 4 3 2 2 1 1 1 1 1 1 1 1 1 2
10 10 10 10 9 9 9 9 10 11 12 13 13 13 13 12 10 9 9 10 9 9 9 8 8 9 9 9 8 8 7 8 7 7 7 7 7 7 7 7 6 7 10 13 14 13 13 13 13 12 9 6 5 5 4 3 2 2 1 1 1 1 1 1 1 1 0 1 2
9 10 10 10 10 9 9 10 11 12 13 13 13 13 12 11 10 9 9 10 9 10 10 9 10 10 10 10 9 9 8 8 8 8 8 8 8 8 8 7 7 7 9 12 13 14 13 13 14 12 9 6 5 5 5 4 3 2 1 1 1 1 1 1 1 1 1 1 2
9 9 10 10 10 10 10 11 12 12 13 13 12 11 10 9 9 9 9 10 9 10 10 10 10 10 9 9 9 8 8 8 9 9 9 9 9 9 9 8 7 7 8 11 13 14 14 13 14 13 10 8 6 5 5 4 4 3 2 1 1 1 1 1 1 1 1 2 3
8 9 10 10 10 10 11 11 12 12 12 12 11 11 10 9 9 8 9 9 9 9 10 10 10 10 10 10 9 9 8 8 9 9 9 9 9 10 10 8 7 7 8 11 14 14 14 14 15 13 10 8 6 5 5 4 4 3 2 2 1 1 1 1 1 1 1 2 2
8 9 10 11 11 11 11 12 12 11 11 10 11 10 9 8 8 8 8 8 9 9 9 9 9 10 10 11 9 9 9 9 9 9 9 9 9 10 10 8 8 7 8 10 13 14 15 15 15 13 11 8 6 5 5 4 4 4 3 2 2 2 1 1 1 1 1 1 2
Wind_Direction
200 246 284 291 262 133 112 112 109 56 49 58 38 33 55 98 84 343 324 330 338 339 340 344 343 343 348 359 10 16 18 18 20 24 28 30 27 24 21 19 18 18 18 18 18 19 20 18 18 17 17 16 23 27 29 29 33 38 42 40 36 45 85 125 136 141 145 148 152
195 220 265 286 253 136 122 120 80 5 4 35 72 97 123 135 148 182 263 296 302 317 332 344 346 351 358 6 15 21 23 22 21 23 24 25 24 23 21 19 17 16 16 17 18 20 21 20 23 23 19 13 20 25 27 24 32 40 43 41 38 37 47 73 106 121 127 130 130
195 201 223 257 246 154 142 149 170 259 293 305 284 121 119 126 150 172 208 251 287 324 348 354 351 357 4 11 19 23 25 25 24 24 23 21 21 21 20 19 17 16 15 14 16 19 21 22 27 27 24 17 21 23 24 21 30 39 43 38 36 37 40 47 69 94 105 109 109
199 198 196 190 183 181 180 175 182 200 227 281 315 18 81 97 112 163 204 252 346 8 13 3 356 360 10 21 25 25 24 25 28 28 25 21 19 18 19 19 18 16 13 11 12 15 19 23 28 31 28 23 24 23 22 20 31 40 44 38 35 34 36 39 51 72 88 93 92
207 206 196 178 176 190 197 181 179 182 190 218 335 359 36 85 85 69 20 38 33 24 13 3 5 13 23 30 31 29 26 24 27 28 26 21 18 17 17 18 17 15 12 9 8 10 13 19 27 31 30 27 27 23 19 19 33 43 47 44 37 33 31 30 41 67 83 85 77
211 211 202 178 176 189 199 183 174 170 166 160 358 355 8 78 107 115 78 60 33 15 6 17 33 39 39 38 36 32 27 22 22 23 23 21 18 17 17 16 14 14 12 10 8 7 9 14 23 28 29 31 32 25 21 22 35 45 49 47 39 33 27 21 25 57 74 76 71
211 212 204 186 175 179 187 180 168 160 156 178 260 307 339 144 149 161 167 78 38 26 21 36 49 52 50 46 40 35 28 22 19 19 19 20 19 18 17 15 13 13 11 9 9 8 9 12 21 26 27 29 33 29 27 29 37 46 51 49 41 34 27 16 14 48 70 75 72
218 216 210 197 176 170 170 172 164 156 155 180 227 248 226 172 164 159 144 87 66 57 46 46 61 65 62 55 47 38 31 25 19 16 14 17 18 17 16 16 15 12 9 7 9 9 10 15 23 25 24 26 30 32 34 40 46 50 52 51 46 39 31 21 20 45 67 76 75
225 226 222 213 185 169 164 165 164 159 160 179 207 210 184 183 172 159 144 128 123 108 77 56 79 75 68 58 50 42 35 30 23 16 12 14 17 17 16 18 18 13 8 5 6 7 10 20 27 27 24 25 27 31 38 49 56 57 55 53 51 47 42 35 33 47 63 74 75
222 226 225 221 201 179 165 164 168 166 165 178 195 195 182 185 176 166 153 142 128 117 104 140 100 79 69 58 49 42 37 32 27 21 16 15 18 19 19 21 21 16 11 4 4 7 12 24 30 29 25 24 27 31 38 51 63 65 62 57 57 56 54 48 44 49 58 69 73
216 221 222 220 209 189 173 170 174 173 173 179 190 190 184 181 174 164 146 125 122 128 148 159 109 89 79 68 54 44 37 34 29 24 20 15 15 17 20 23 24 22 16 7 7 12 18 24 31 31 28 23 24 29 37 48 63 68 69 66 64 62 60 54 51 52 57 65 69
211 219 225 226 215 197 184 180 183 182 180 182 189 190 187 181 173 159 142 128 136 151 168 152 114 103 97 88 71 51 40 35 33 29 23 14 8 9 16 22 24 23 18 11 13 21 30 30 32 33 31 24 21 24 33 43 59 66 69 69 69 67 65 59 57 58 61 64 67
205 213 224 234 224 209 196 192 192 189 188 188 190 192 192 183 172 159 149 146 152 163 169 143 121 114 110 104 86 58 44 37 35 30 22 11 5 7 13 19 21 21 18 11 16 28 39 37 37 38 37 29 22 21 25 37 53 62 66 68 70 71 71 67 65 67 69 68 67
200 207 217 229 229 219 207 201 201 197 194 193 193 195 195 185 173 163 156 155 160 164 160 137 131 131 131 129 100 66 43 35 35 27 19 6 4 8 12 14 18 19 16 10 18 33 43 43 40 41 42 37 27 21 22 30 44 55 62 67 71 74 75 74 74 75 75 74 71
199 205 212 220 225 224 217 210 208 203 199 197 196 196 196 190 179 168 160 160 162 159 149 134 140 145 149 152 148 121 23 23 19 12 7 360 2 7 10 9 14 17 18 15 24 36 45 48 46 46 45 42 34 29 27 29 37 45 53 60 66 71 74 77 78 80 80 80 76
200 204 208 213 219 222 221 217 213 208 204 201 198 196 194 192 182 171 163 163 160 155 147 146 149 153 157 161 156 151 79 356 331 329 332 347 356 4 7 7 11 17 23 26 32 38 45 48 51 53 52 47 42 39 37 36 38 41 44 48 54 59 64 70 77 81 84 86 83
202 204 205 208 214 218 221 220 217 212 208 204 199 195 191 191 185 176 169 166 162 161 163 165 157 152 155 163 154 148 151 173 236 263 281 312 330 356 8 4 360 10 26 39 44 44 46 47 52 57 58 53 49 48 48 48 46 44 43 42 43 45 47 51 60 71 81 87 88
205 205 204 206 211 215 218 219 217 215 212 206 200 196 192 191 187 182 175 168 165 168 171 173 163 156 157 165 169 167 164 165 190 219 248 281 289 302 44 8 341 354 22 49 54 54 51 51 56 62 64 59 54 53 54 55 54 52 48 45 42 40 39 37 38 48 63 76 84
207 206 205 206 209 212 214 216 216 215 214 211 202 197 195 193 189 185 180 176 173 173 173 172 168 164 164 170 178 182 178 169 179 197 227 267 285 300 352 36 344 358 20 47 57 60 59 54 59 68 72 70 63 59 56 56 56 56 55 52 48 45 41 37 34 37 46 58 66
207 207 207 208 208 209 210 212 212 212 213 214 207 201 197 196 190 188 187 187 181 177 173 172 171 171 173 176 181 187 189 178 175 189 211 247 271 287 318 9 2 7 21 43 59 65 66 60 62 72 80 83 77 71 65 62 59 58 57 58 55 51 46 42 38 38 40 45 51
208 209 208 208 207 207 207 208 207 208 210 215 211 206 201 198 195 194 192 191 181 176 175 176 174 175 177 179 184 190 193 182 173 184 200 222 234 246 272 353 359 10 23 42 61 72 77 74 71 77 85 90 89 86 81 76 69 63 59 59 58 56 52 46 42 40 38 38 40
210 210 208 207 206 206 205 203 202 204 208 213 212 208 205 201 201 200 198 191 180 178 180 183 181 179 179 180 183 185 185 176 173 182 196 207 223 238 255 13 15 27 45 57 71 82 88 89 82 83 89 96 98 98 96 93 85 75 66 59 57 55 53 47 43 40 38 36 36
211 209 206 205 204 204 202 200 199 202 206 211 211 210 208 206 205 205 201 193 187 186 189 190 187 183 181 179 178 175 172 168 175 187 197 202 216 235 262 352 113 126 123 107 101 103 103 99 92 91 94 101 105 107 108 107 103 94 82 68 59 53 48 43 37 35 35 35 34
209 205 203 200 200 200 199 197 198 202 206 209 208 207 207 206 206 205 203 199 195 194 193 193 190 185 180 175 170 167 166 168 176 184 193 199 199 203 214 226 198 192 184 159 154 146 136 120 112 108 108 110 113 115 116 117 116 113 104 91 73 59 47 39 31 27 25 25 28
206 202 199 197 196 197 197 197 200 203 205 206 204 203 203 203 202 202 202 202 200 197 195 193 189 181 173 167 165 165 166 169 173 176 180 187 186 184 181 193 211 217 220 211 193 181 170 155 144 131 124 124 124 123 123 123 122 121 118 112 99 82 62 43 29 19 13 10 12
201 198 197 196 194 195 198 200 203 204 204 203 200 200 200 199 198 197 198 201 201 199 195 191 186 180 172 164 163 165 168 172 171 171 172 176 179 182 187 197 215 224 229 225 212 202 193 184 171 155 136 129 132 133 130 127 126 122 118 116 115 110 102 82 35 360 351 351 354
199 198 197 195 194 196 200 203 203 204 203 201 199 199 199 195 193 194 197 200 199 197 194 190 187 182 175 165 165 169 174 177 174 172 171 170 174 180 191 205 214 222 223 219 214 209 203 198 186 169 151 136 141 142 141 137 128 120 115 115 121 127 135 148 166 266 317 327 336
199 198 196 193 196 199 201 202 202 203 204 202 200 198 195 190 189 192 195 196 193 192 193 193 190 182 175 169 174 176 177 177 177 174 172 170 174 181 189 202 215 222 218 213 213 212 209 206 196 180 164 149 147 146 146 143 137 128 122 121 129 139 150 161 171 193 256 300 316
200 197 194 194 198 200 201 200 202 204 204 202 200 195 191 188 189 191 192 191 190 191 192 193 188 181 177 181 183 181 177 176 176 173 172 175 184 191 197 203 213 219 217 212 213 214 214 212 204 190 173 155 147 143 146 147 145 142 139 136 140 146 154 161 167 179 205 258 293
199 196 195 196 199 200 200 201 203 203 201 199 196 193 191 190 192 192 192 191 191 191 190 184 181 182 185 188 184 181 179 179 174 171 172 180 192 201 208 210 216 220 218 213 214 215 215 213 209 197 178 154 143 138 141 145 146 148 151 156 158 157 157 156 162 170 182 198 245
198 196 196 198 200 201 202 202 201 199 197 195 193 193 193 195 195 195 193 191 190 188 184 177 179 184 187 186 182 181 181 180 176 176 180 185 194 201 208 212 220 225 223 217 216 215 215 212 210 200 181 154 142 135 137 140 144 149 156 163 169 172 169 163 164 169 176 180 193
198 197 198 199 202 203 202 200 198 195 193 192 192 194 197 199 199 197 194 189 186 182 180 179 182 185 186 183 183 184 183 180 182 185 187 188 191 197 205 213 222 227 226 221 218 217 214 210 209 201 186 161 146 137 135 135 137 140 146 153 163 172 177 176 174 175 177 179 183
199 198 199 202 203 203 201 197 194 192 191 192 194 196 199 201 199 196 192 189 185 183 182 184 185 185 185 184 186 187 188 186 188 189 190 188 189 192 201 213 222 227 226 223 220 218 215 210 208 203 190 167 149 135 130 126 123 122 124 131 143 159 173 182 185 184 183 182 183
200 200 201 204 204 202 199 194 191 190 190 193 196 198 199 200 197 195 193 191 188 187 186 186 186 185 184 183 184 186 189 192 191 190 188 186 185 189 197 211 223 227 225 222 221 219 216 211 209 205 193 169 150 134 126 122 116 113 114 116 115 129 169 192 195 193 187 183 180
201 201 203 205 204 201 196 191 188 189 191 195 198 200 200 199 197 195 193 191 189 188 188 188 185 184 182 183 184 186 188 190 190 190 187 182 182 188 199 211 223 226 225 223 222 220 217 212 211 207 196 169 147 134 130 126 123 122 121 120 119 126 192 225 217 205 193 179 174
203 203 205 206 203 199 194 189 188 189 193 197 199 200 200 200 198 195 192 188 186 186 187 186 183 182 183 186 187 188 188 187 188 189 187 182 183 189 199 209 221 226 226 223 222 220 217 213 213 209 199 164 141 131 133 132 131 128 129 130 149 181 235 272 272 250 204 176 169
204 204 205 205 203 198 193 188 188 192 196 200 200 200 200 199 198 194 189 184 185 186 187 185 184 185 187 188 189 189 187 184 184 186 189 188 188 191 198 207 217 224 226 224 222 220 216 213 213 208 192 144 137 137 139 137 135 134 140 167 206 243 285 310 309 302 265 194 175
204 203 203 204 202 198 194 190 192 196 200 203 203 201 199 197 195 191 187 185 186 188 188 187 188 189 189 187 186 185 185 183 184 186 189 192 193 194 196 203 212 222 226 226 223 220 216 212 215 205 183 134 143 145 145 144 145 153 170 205 245 289 319 330 325 315 291 245 205
202 201 201 203 201 199 196 194 197 200 202 203 203 201 198 195 193 191 189 188 188 188 189 189 191 190 187 182 181 182 183 186 187 188 189 193 196 196 196 199 208 217 224 225 224 221 216 211 216 205 180 142 148 148 146 146 152 162 177 203 241 283 312 326 327 322 304 279 234
201 199 200 202 201 200 199 199 202 203 203 202 202 200 198 195 193 190 188 189 189 189 189 189 189 186 182 179 179 181 184 188 191 192 192 193 197 198 198 199 205 212 220 224 224 221 217 212 214 201 177 144 150 149 146 147 155 164 179 198 216 243 278 308 319 325 321 307 272
199 199 200 203 203 202 201 203 204 204 202 201 201 199 197 193 190 187 187 189 190 189 189 188 184 181 179 180 180 182 184 189 194 195 194 193 198 200 200 198 201 207 215 222 223 221 218 216 211 196 173 151 153 153 149 150 157 169 183 200 204 210 228 273 299 307 310 311 309